• In Germany
  • List of Countries
  • For 7 days
  • Water Temperature
  • Satellite Maps
  • Weather Map
  • Weather Widgets
  • user-avatar
    Login

    Hourly Weather Montana

    Today, 20 November, Monday

    Time Temperature Precipitation Wind Pressure Humidity
    00:00 +6°C° 0.5 mm 2 mps 730 mmHg 76%
    01:00 +5°C° 0.5 mm 2 mps 730 mmHg 76%
    02:00 +5°C° 0.5 mm 2 mps 731 mmHg 77%
    03:00 +4°C° 0.2 mm 3 mps 731 mmHg 77%
    04:00 +3°C° 0.2 mm 3 mps 731 mmHg 78%
    05:00 +3°C° 0.2 mm 3 mps 731 mmHg 79%
    06:00 +3°C° 0.1 mm 3 mps 732 mmHg 79%
    07:00 +3°C° 0.1 mm 3 mps 732 mmHg 80%
    08:00 +3°C° 0.1 mm 4 mps 732 mmHg 80%
    09:00 +3°C° 0 mm 4 mps 733 mmHg 76%
    10:00 +3°C° 0 mm 5 mps 733 mmHg 72%
    11:00 +3°C° 0 mm 6 mps 734 mmHg 68%
    12:00 +3°C° 0 mm 6 mps 734 mmHg 67%
    13:00 +4°C° 0 mm 6 mps 734 mmHg 66%
    14:00 +4°C° 0 mm 6 mps 734 mmHg 64%
    15:00 +3°C° 0 mm 6 mps 734 mmHg 67%
    16:00 +3°C° 0 mm 5 mps 734 mmHg 70%
    17:00 +3°C° 0 mm 4 mps 734 mmHg 73%
    18:00 +3°C° 0 mm 4 mps 735 mmHg 75%
    19:00 +1°C° 0 mm 4 mps 735 mmHg 77%
    20:00 +1°C° 0 mm 4 mps 735 mmHg 79%
    21:00 +2°C° 0 mm 3 mps 736 mmHg 79%
    22:00 +1°C° 0 mm 3 mps 736 mmHg 79%
    23:00 +1°C° 0 mm 3 mps 736 mmHg 80%

    Tomorrow, 21 November, Tuesday

    Time Temperature Precipitation Wind Pressure Humidity
    00:00 +1°C° 0 mm 3 mps 737 mmHg 80%
    01:00 +1°C° 0 mm 3 mps 737 mmHg 81%
    02:00 +1°C° 0 mm 3 mps 737 mmHg 81%
    03:00 0°C° 0 mm 3 mps 737 mmHg 82%
    04:00 0°C° 0 mm 3 mps 737 mmHg 82%
    05:00 0°C° 0 mm 3 mps 736 mmHg 83%
    06:00 +1°C° 0 mm 2 mps 736 mmHg 81%
    07:00 +1°C° 0 mm 2 mps 736 mmHg 80%
    08:00 +1°C° 0 mm 2 mps 736 mmHg 79%
    09:00 +3°C° 0 mm 2 mps 736 mmHg 73%
    10:00 +3°C° 0 mm 3 mps 736 mmHg 66%
    11:00 +5°C° 0 mm 3 mps 736 mmHg 60%
    12:00 +7°C° 0 mm 3 mps 736 mmHg 57%
    13:00 +8°C° 0 mm 3 mps 735 mmHg 55%
    14:00 +9°C° 0 mm 3 mps 734 mmHg 53%
    15:00 +8°C° 0 mm 3 mps 734 mmHg 57%
    16:00 +7°C° 0 mm 3 mps 734 mmHg 60%
    17:00 +7°C° 0 mm 3 mps 734 mmHg 64%
    18:00 +5°C° 0 mm 3 mps 734 mmHg 65%
    19:00 +5°C° 0 mm 3 mps 734 mmHg 66%
    20:00 +5°C° 0 mm 3 mps 735 mmHg 67%
    21:00 +5°C° 0 mm 3 mps 735 mmHg 66%
    22:00 +4°C° 0 mm 3 mps 735 mmHg 66%
    23:00 +4°C° 0 mm 3 mps 735 mmHg 66%

    Day after tomorrow, 22 November, Wednesday

    Time Temperature Precipitation Wind Pressure Humidity
    00:00 +4°C° 0 mm 3 mps 735 mmHg 66%
    01:00 +4°C° 0 mm 3 mps 735 mmHg 66%
    02:00 +4°C° 0 mm 3 mps 735 mmHg 66%
    03:00 +4°C° 0 mm 3 mps 735 mmHg 66%
    04:00 +4°C° 0 mm 3 mps 735 mmHg 66%
    05:00 +5°C° 0 mm 3 mps 735 mmHg 66%
    06:00 +5°C° 0 mm 3 mps 735 mmHg 67%
    07:00 +5°C° 0 mm 3 mps 735 mmHg 68%
    08:00 +5°C° 0 mm 3 mps 736 mmHg 69%
    09:00 +7°C° 0 mm 3 mps 736 mmHg 68%
    10:00 +7°C° 0 mm 4 mps 736 mmHg 66%
    11:00 +10°C° 0 mm 4 mps 737 mmHg 64%
    12:00 +10°C° 0 mm 4 mps 736 mmHg 64%
    13:00 +11°C° 0 mm 4 mps 736 mmHg 64%
    14:00 +12°C° 0 mm 4 mps 736 mmHg 64%
    15:00 +11°C° 0 mm 3 mps 736 mmHg 68%
    16:00 +10°C° 0 mm 3 mps 737 mmHg 72%
    17:00 +9°C° 0 mm 2 mps 737 mmHg 76%
    18:00 +8°C° 0 mm 2 mps 737 mmHg 76%
    19:00 +8°C° 0 mm 2 mps 738 mmHg 77%
    20:00 +7°C° 0 mm 2 mps 738 mmHg 78%
    21:00 +8°C° 0 mm 1 mps 738 mmHg 78%
    22:00 +8°C° 0 mm 1 mps 739 mmHg 78%
    23:00 +7°C° 0 mm 1 mps 739 mmHg 78%

    23 November, Thursday

    Time Temperature Precipitation Wind Pressure Humidity
    00:00 +7°C° 0 mm 1 mps 739 mmHg 79%
    01:00 +7°C° 0 mm 1 mps 739 mmHg 79%
    02:00 +7°C° 0 mm 1 mps 739 mmHg 80%
    03:00 +6°C° 0 mm 1 mps 739 mmHg 80%
    04:00 +6°C° 0 mm 1 mps 739 mmHg 81%
    05:00 +6°C° 0 mm 1 mps 739 mmHg 81%
    06:00 +6°C° 0 mm 1 mps 740 mmHg 81%
    07:00 +6°C° 0 mm 1 mps 740 mmHg 81%
    08:00 +6°C° 0 mm 1 mps 740 mmHg 81%
    09:00 +8°C° 0 mm 1 mps 740 mmHg 76%
    10:00 +9°C° 0 mm 1 mps 740 mmHg 70%
    11:00 +10°C° 0 mm 0 mps 741 mmHg 64%
    12:00 +11°C° 0 mm 0 mps 740 mmHg 62%
    13:00 +12°C° 0 mm 0 mps 740 mmHg 59%
    14:00 +13°C° 0 mm 0 mps 740 mmHg 57%
    15:00 +12°C° 0 mm 0 mps 740 mmHg 62%
    16:00 +10°C° 0 mm 0 mps 740 mmHg 66%
    17:00 +9°C° 0 mm 0 mps 740 mmHg 71%
    18:00 +10°C° 0 mm 1 mps 740 mmHg 72%
    19:00 +9°C° 0 mm 1 mps 740 mmHg 73%
    20:00 +9°C° 0 mm 1 mps 740 mmHg 74%
    21:00 +9°C° 0 mm 1 mps 741 mmHg 74%
    22:00 +9°C° 0 mm 1 mps 741 mmHg 74%
    23:00 +8°C° 0 mm 1 mps 741 mmHg 74%

    24 November, Friday

    Time Temperature Precipitation Wind Pressure Humidity
    00:00 +8°C° 0 mm 1 mps 741 mmHg 74%
    01:00 +8°C° 0 mm 1 mps 740 mmHg 74%
    02:00 +8°C° 0 mm 1 mps 740 mmHg 73%
    03:00 +8°C° 0 mm 1 mps 740 mmHg 73%
    04:00 +7°C° 0 mm 1 mps 740 mmHg 72%
    05:00 +7°C° 0 mm 1 mps 740 mmHg 71%
    06:00 +7°C° 0 mm 1 mps 740 mmHg 70%
    07:00 +7°C° 0 mm 1 mps 740 mmHg 69%
    08:00 +7°C° 0 mm 1 mps 740 mmHg 68%
    09:00 +9°C° 0 mm 1 mps 740 mmHg 63%
    10:00 +11°C° 0 mm 1 mps 740 mmHg 57%
    11:00 +13°C° 0 mm 1 mps 740 mmHg 51%
    12:00 +14°C° 0 mm 1 mps 740 mmHg 49%
    13:00 +15°C° 0 mm 1 mps 740 mmHg 47%
    14:00 +16°C° 0 mm 1 mps 739 mmHg 44%
    15:00 +14°C° 0 mm 1 mps 739 mmHg 49%
    16:00 +13°C° 0 mm 1 mps 739 mmHg 55%
    17:00 +12°C° 0 mm 1 mps 739 mmHg 60%
    18:00 +11°C° 0 mm 1 mps 739 mmHg 61%
    19:00 +10°C° 0 mm 1 mps 740 mmHg 63%
    20:00 +10°C° 0 mm 1 mps 740 mmHg 64%
    21:00 +10°C° 0 mm 1 mps 740 mmHg 65%
    22:00 +9°C° 0 mm 1 mps 740 mmHg 65%
    23:00 +9°C° 0 mm 1 mps 740 mmHg 65%

    25 November, Saturday

    Time Temperature Precipitation Wind Pressure Humidity
    00:00 +9°C° 0 mm 1 mps 740 mmHg 65%
    01:00 +9°C° 0 mm 1 mps 740 mmHg 65%
    02:00 +8°C° 0 mm 1 mps 740 mmHg 66%
    03:00 +8°C° 0 mm 1 mps 740 mmHg 66%
    04:00 +8°C° 0 mm 1 mps 740 mmHg 66%
    05:00 +8°C° 0 mm 1 mps 740 mmHg 66%
    06:00 +8°C° 0 mm 1 mps 741 mmHg 66%
    07:00 +6°C° 0 mm 0 mps 741 mmHg 66%
    08:00 +6°C° 0 mm 0 mps 742 mmHg 66%
    09:00 +9°C° 0 mm 1 mps 742 mmHg 62%
    10:00 +11°C° 0 mm 1 mps 742 mmHg 57%
    11:00 +13°C° 0 mm 1 mps 742 mmHg 52%
    12:00 +13°C° 0 mm 1 mps 742 mmHg 51%
    13:00 +14°C° 0 mm 1 mps 742 mmHg 50%
    14:00 +14°C° 0 mm 2 mps 742 mmHg 49%
    15:00 +13°C° 0 mm 1 mps 742 mmHg 55%
    16:00 +12°C° 0 mm 1 mps 742 mmHg 61%
    17:00 +11°C° 0 mm 1 mps 742 mmHg 66%
    18:00 +10°C° 0 mm 1 mps 742 mmHg 69%
    19:00 +9°C° 0 mm 1 mps 743 mmHg 71%
    20:00 +9°C° 0 mm 1 mps 743 mmHg 73%
    21:00 +9°C° 0 mm 1 mps 743 mmHg 75%
    22:00 +8°C° 0 mm 1 mps 743 mmHg 76%
    23:00 +8°C° 0 mm 1 mps 744 mmHg 77%
    Show more